Location: Krasnoyarskiy Pitomnik
(51.1333°N, 71.6167°E)
Time: 08:22:51
(UTC+00:00)

IRS-P3 - Pass Details

Date: 22 October 2021
Orbit: 813 x 819 km, 98.9° (Epoch: 06 December)

Event Time Altitude Azimuth Distance (km) Brightness Sun altitude
Rises 22:46:23 0° 15° (NNE) 3,354 7.8 -29.2°
Reaches altitude 10° 22:48:44 10° 15° (NNE) 2,417 6.9 -28.8°
Enters shadow 22:53:31 72° 2° (N) 860 4.1 -28.1°
